Home   Weather   Redmond   Past weeks

Flag for USA Past Weather in Redmond, Washington, USA — Yesterday and Last 2 Weeks

Now
55 °F

Overcast.


Feels Like: 53 °F
Forecast: 47 / 62 °F
Wind: 8 mph from Northeast

Location: Seattle Boeing Field

Current Time: May 24, 2017 at 1:14:02 am

Latest Report: May 23, 2017 at 11:53 pm


Visibility: 10 mi

Pressure: 30.05 "Hg

Humidity: 59%

Dew Point: 41 °F

Location of RedmondLocation

Past Weather in Redmond — Graph

°F

Redmond Temperature Yesterday

Maximum temperature yesterday: 80 °F (at 3:53 pm)
Minimum temperature yesterday: 55 °F (at 11:53 pm)
Average temperature yesterday: 65 °F

High & Low Weather Summary for the Past Weeks

 TemperatureHumidityPressure
High80 °F (May 22, 3:53 pm)100% (May 12, 1:53 am)30.24 "Hg (May 12, 1:53 am)
Low44 °F (May 12, 1:53 am)38% (May 23, 3:53 pm)29.58 "Hg (May 16, 5:53 am)
Average57 °F74%30.02 "Hg
* Reported May 8 11:53 pm — May 23 11:53 pm, Redmond. Weather by CustomWeather, © 2017

Note: Actual official high and low records may vary slightly from our data, if they occured in-between our weather recording intervals... More about our weather records

Advertising

Redmond Weather History for the Previous 24 Hours

Scroll right to see more
 ConditionsComfort  
Time TempWeatherWind HumidityBarometerVisibility
11:53 pm
Tue, May 23
55 °FOvercast.8 mph59%30.05 "Hg10 mi
10:53 pm56 °FOvercast.8 mph65%30.03 "Hg10 mi
9:53 pm56 °FOvercast.10 mph72%30.01 "Hg10 mi
8:53 pm58 °FOvercast.7 mph72%29.98 "Hg10 mi
7:53 pm60 °FPartly sunny.5 mph75%29.96 "Hg10 mi
6:53 pm64 °FPartly sunny.9 mph68%29.96 "Hg10 mi
5:53 pm69 °FOvercast.8 mph63%29.95 "Hg10 mi
4:53 pm76 °FPassing clouds.8 mph45%29.93 "Hg10 mi
3:53 pm80 °FSunny.7 mph38%29.93 "Hg10 mi
2:53 pm79 °FSunny.7 mph41%29.95 "Hg10 mi
1:53 pm77 °FSunny.6 mph47%29.96 "Hg10 mi
12:53 pm75 °FSunny.9 mph50%29.97 "Hg10 mi
11:53 am72 °FPassing clouds.5 mph57%29.98 "Hg10 mi
10:53 am72 °FSunny.6 mph55%29.98 "Hg10 mi
9:53 am70 °FSunny.No wind61%30.01 "Hg10 mi
8:53 am66 °FSunny.3 mph68%30.03 "Hg10 mi
7:53 am62 °FSunny.3 mph73%30.03 "Hg10 mi
6:53 am59 °FScattered clouds.No wind81%30.03 "Hg10 mi
5:53 am59 °FSunny.No wind78%30.02 "Hg10 mi
4:53 am57 °FClear.No wind81%30.01 "Hg10 mi
3:53 am59 °FClear.No wind78%30.02 "Hg10 mi
2:53 am61 °FClear.No wind72%30.01 "Hg10 mi
1:53 am64 °FClear.No wind63%30.01 "Hg10 mi
Weather by CustomWeather, © 2017

See weather overviewHow to use our weather pages